Wayne, NE

3:04 AM CDT on April 26, 2017 (GMT -0500)
Wayne Municipal

Weather History for KLCG - March, 2013

Change the Weather History Date:

Friday, March 29, 2013

  Actual Average (KOFK) Record (KOFK)
Temperature  
Mean Temperature 46 °F -  
Max Temperature 68 °F 50 °F 88 °F (1986)
Min Temperature 25 °F 31 °F 5 °F (1969)
Degree Days  
Heating Degree Days 18    
Moisture  
Dew Point 33 °F    
Average Humidity 59    
Maximum Humidity 96    
Minimum Humidity 24    
Precipitation  
Precipitation 0.05 in - - ()
Sea Level Pressure  
Sea Level Pressure 30.12 in    
Wind  
Wind Speed 7 mph (South)    
Max Wind Speed 20 mph    
Max Gust Speed 29 mph    
Visibility 9 miles    
Events Rain    
Averages and records for this station are not official NWS values.
T = Trace of Precipitation, MM = Missing Value Source: NWS Daily Summary

Daily Weather History Graph

Daily Weather History Graph

Search for Another Location

Airport or City:

Trip Planner

Search our weather history database for the weather conditions in past years. The results will help you decide how hot, cold, wet, or windy it might be!

Date:

Astronomy

Mar. 29, 2013 Rise Set
Actual Time 7:15 AM CDT 7:50 PM CDT
Civil Twilight 6:46 AM CDT 8:18 PM CDT
Nautical Twilight 6:13 AM CDT 8:52 PM CDT
Astronomical Twilight 5:39 AM CDT 9:26 PM CDT
Moon 10:56 PM CDT (3/29) 8:21 AM CDT (3/29)
Length of Visible Light 13h 31m
Length of Day
12h 35m
Waning Gibbous, 93% of the Moon is Illuminated
Mar 29
Waning Gibbous
Apr 2
Last Quarter
Apr 10
New
Apr 18
First Quarter
Apr 25
Full

Hourly Weather History & Observations

Time (CDT) Temp. Windchill Dew Point Humidity Pressure Visibility Wind Dir Wind Speed Gust Speed Precip Events Conditions
12:15 AM 39.0 °F 33.4 °F 29.3 °F 68% 30.19 in 10.0 mi SSE 8.1 mph - N/A   Mostly Cloudy
12:35 AM 37.8 °F 35.3 °F 28.6 °F 69% 30.19 in 10.0 mi South 3.5 mph - N/A   Mostly Cloudy
12:55 AM 38.3 °F 34.8 °F 29.1 °F 70% 30.19 in 10.0 mi SSE 4.6 mph - N/A   Scattered Clouds
1:15 AM 38.1 °F 34.6 °F 29.1 °F 70% 30.19 in 10.0 mi SSE 4.6 mph - N/A   Clear
1:55 AM 38.5 °F 33.4 °F 30.4 °F 73% 30.18 in 10.0 mi SSE 6.9 mph - N/A   Clear
2:15 AM 36.5 °F 31.0 °F 30.2 °F 78% 30.18 in 10.0 mi SSE 6.9 mph - N/A   Scattered Clouds
2:35 AM 37.6 °F 32.3 °F 31.5 °F 79% 30.18 in 10.0 mi SSE 6.9 mph - N/A   Scattered Clouds
2:55 AM 34.0 °F - 30.4 °F 87% 30.17 in 10.0 mi Calm Calm - N/A   Clear
3:35 AM 37.0 °F 34.5 °F 30.9 °F 79% 30.17 in 10.0 mi SSW 3.5 mph - N/A   Clear
3:55 AM 35.6 °F 31.7 °F 30.6 °F 82% 30.17 in 10.0 mi SSW 4.6 mph - N/A   Clear
4:15 AM 33.8 °F 30.8 °F 30.0 °F 86% 30.17 in 10.0 mi SSW 3.5 mph - N/A   Clear
4:35 AM 35.1 °F 32.2 °F 30.7 °F 84% 30.17 in 10.0 mi SSW 3.5 mph - N/A   Clear
4:55 AM 34.0 °F - 30.2 °F 86% 30.17 in 10.0 mi Calm Calm - N/A   Clear
5:15 AM 31.8 °F - 28.9 °F 89% 30.17 in 10.0 mi Calm Calm - N/A   Clear
5:35 AM 30.7 °F - 28.9 °F 93% 30.17 in 7.0 mi Calm Calm - N/A   Clear
5:55 AM 29.8 °F - 28.4 °F 94% 30.17 in 7.0 mi Calm Calm - N/A   Clear
6:15 AM 28.4 °F - 27.1 °F 95% 30.17 in 7.0 mi Calm Calm - N/A   Clear
6:35 AM 29.3 °F - 28.0 °F 95% 30.17 in 7.0 mi Calm Calm - N/A   Clear
6:55 AM 28.8 °F - 27.1 °F 94% 30.17 in 5.0 mi Calm Calm - N/A   Clear
7:15 AM 26.6 °F - 25.7 °F 96% 30.17 in 4.0 mi Calm Calm - N/A   Clear
7:35 AM 25.5 °F - 24.4 °F 96% 30.18 in 5.0 mi Calm Calm - N/A   Clear
7:55 AM 28.0 °F - 27.1 °F 96% 30.19 in 5.0 mi Calm Calm - N/A   Clear
8:15 AM 31.1 °F - 30.0 °F 96% 30.19 in 5.0 mi Calm Calm - N/A   Clear
8:35 AM 34.5 °F - 32.2 °F 91% 30.20 in 7.0 mi Calm Calm - N/A   Clear
8:55 AM 39.2 °F 35.9 °F 34.2 °F 82% 30.20 in 7.0 mi South 4.6 mph - N/A   Clear
9:15 AM 42.1 °F 38.4 °F 35.1 °F 76% 30.20 in 7.0 mi South 5.8 mph - N/A   Clear
9:35 AM 45.0 °F 41.2 °F 35.8 °F 70% 30.20 in 10.0 mi South 6.9 mph - N/A   Clear
9:55 AM 47.8 °F - 36.5 °F 65% 30.20 in 10.0 mi South 8.1 mph - N/A   Clear
10:15 AM 49.8 °F - 37.2 °F 62% 30.19 in 10.0 mi South 9.2 mph - N/A   Clear
10:35 AM 53.1 °F - 37.8 °F 56% 30.19 in 10.0 mi South 12.7 mph - N/A   Clear
10:55 AM 54.7 °F - 37.4 °F 52% 30.18 in 10.0 mi South 12.7 mph - N/A   Clear
11:15 AM 56.3 °F - 37.2 °F 49% 30.18 in 10.0 mi South 15.0 mph 18.4 mph N/A   Clear
11:55 AM 59.2 °F - 35.6 °F 41% 30.17 in 10.0 mi South 18.4 mph 23.0 mph N/A   Clear
12:15 PM 59.9 °F - 35.4 °F 40% 30.17 in 10.0 mi South 17.3 mph - N/A   Clear
12:35 PM 61.2 °F - 33.8 °F 36% 30.16 in 10.0 mi South 19.6 mph 23.0 mph N/A   Clear
12:55 PM 61.5 °F - 33.1 °F 34% 30.15 in 10.0 mi South 18.4 mph 23.0 mph N/A   Clear
1:15 PM 62.4 °F - 32.0 °F 32% 30.14 in 10.0 mi South 16.1 mph 25.3 mph N/A   Clear
1:35 PM 63.7 °F - 32.0 °F 31% 30.13 in 10.0 mi SSE 16.1 mph - N/A   Clear
1:55 PM 63.9 °F - 32.0 °F 30% 30.12 in 10.0 mi South 15.0 mph 23.0 mph N/A   Clear
2:15 PM 65.1 °F - 32.0 °F 29% 30.12 in 10.0 mi SSE 16.1 mph 23.0 mph N/A   Clear
2:35 PM 66.2 °F - 32.0 °F 28% 30.10 in 10.0 mi SSE 15.0 mph - N/A   Clear
2:55 PM 65.8 °F - 32.0 °F 28% 30.10 in 10.0 mi South 15.0 mph 20.7 mph N/A   Clear
3:15 PM 66.2 °F - 31.8 °F 28% 30.09 in 10.0 mi South 13.8 mph 21.9 mph N/A   Clear
3:35 PM 67.3 °F - 32.2 °F 27% 30.08 in 10.0 mi South 17.3 mph 23.0 mph N/A   Clear
3:55 PM 67.3 °F - 32.0 °F 27% 30.07 in 10.0 mi South 18.4 mph 23.0 mph N/A   Clear
4:15 PM 67.5 °F - 31.3 °F 26% 30.06 in 10.0 mi South 17.3 mph 24.2 mph N/A   Clear
4:35 PM 68.0 °F - 30.6 °F 25% 30.06 in 10.0 mi South 16.1 mph 24.2 mph N/A   Clear
4:55 PM 68.2 °F - 30.4 °F 24% 30.05 in 10.0 mi South 16.1 mph 20.7 mph N/A   Clear
5:15 PM 68.0 °F - 30.0 °F 24% 30.05 in 10.0 mi South 15.0 mph - N/A   Clear
5:35 PM 68.0 °F - 30.2 °F 24% 30.05 in 10.0 mi South 16.1 mph - N/A   Clear
5:55 PM 67.8 °F - 30.0 °F 24% 30.04 in 10.0 mi South 15.0 mph - N/A   Clear
6:15 PM 67.1 °F - 30.6 °F 26% 30.04 in 10.0 mi South 13.8 mph - N/A   Clear
6:35 PM 64.9 °F - 31.1 °F 28% 30.03 in 10.0 mi South 12.7 mph - N/A   Clear
6:55 PM 64.4 °F - 31.1 °F 29% 30.03 in 10.0 mi South 10.4 mph - N/A   Clear
7:15 PM 62.6 °F - 32.0 °F 32% 30.02 in 10.0 mi SSE 10.4 mph - N/A   Clear
7:35 PM 60.8 °F - 32.4 °F 34% 30.01 in 10.0 mi SSE 10.4 mph - N/A   Clear
7:55 PM 60.1 °F - 32.0 °F 35% 30.00 in 10.0 mi SSE 13.8 mph - N/A   Mostly Cloudy
8:15 PM 59.7 °F - 31.8 °F 35% 30.00 in 10.0 mi SE 10.4 mph - N/A   Scattered Clouds
8:35 PM 58.1 °F - 32.0 °F 37% 30.00 in 10.0 mi SE 9.2 mph - N/A   Scattered Clouds
8:55 PM 56.5 °F - 32.0 °F 39% 30.01 in 10.0 mi SE 8.1 mph - N/A   Scattered Clouds
9:15 PM 55.4 °F - 32.4 °F 42% 30.02 in 10.0 mi SSE 5.8 mph - N/A   Mostly Cloudy
9:35 PM 55.8 °F - 32.2 °F 41% 30.04 in 10.0 mi SSW 9.2 mph - N/A   Overcast
9:55 PM 58.1 °F - 34.0 °F 40% 30.06 in 10.0 mi SW 16.1 mph 19.6 mph N/A Rain Light Rain
10:15 PM 55.4 °F - 44.1 °F 66% 30.07 in 7.0 mi SW 19.6 mph 28.8 mph N/A Rain Light Rain
10:35 PM 53.2 °F - 45.3 °F 74% 30.08 in 7.0 mi SSW 12.7 mph - 0.02 in Rain Light Rain
10:55 PM 51.1 °F - 46.9 °F 86% 30.06 in 10.0 mi SW 3.5 mph - 0.02 in Rain Rain
11:15 PM 50.5 °F - 47.3 °F 89% 30.05 in 7.0 mi Calm Calm - 0.01 in Rain Rain
11:35 PM 49.5 °F - 47.5 °F 93% 30.05 in 10.0 mi Calm Calm - 0.02 in Rain Rain
11:55 PM 48.6 °F - 47.3 °F 95% 30.04 in 7.0 mi Calm Calm - 0.03 in   Overcast